Regional Weather Roundup
Issued by NWS Jackson, KY

Home | Current Version | Previous Version | Text Only | Print | Product List | Glossary Off
Versions: 1 2 3 4 5 6 7 8 9 10 11 12 13 14 15 16 17 18 19 20 21 22 23 24 25 26 27 28 29 30 31 32 33 34 35 36 37 38 39 40 41 42 43 44 45 46 47 48 49 50

000
ASUS43 KJKL 031110
RWRJKL

EAST KENTUCKY HOURLY WEATHER ROUNDUP
NATIONAL WEATHER SERVICE JACKSON KY
700 AM EDT FRI JUL 03 2015

NOTE: "FAIR" INDICATES FEW OR NO CLOUDS BELOW 12,000 FEET WITH
NO SIGNIFICANT WEATHER AND/OR OBSTRUCTIONS TO VISIBILITY.

* THESE REPORTS ARE NOT UNDER NWS QUALITY CONTROL AND MAY NOT
  REPORT WEATHER SUCH AS PRECIPITATION AND FOG.

KYZ079-080-083-085-087-088-110-112-115-119-120-031200
...EASTERN KENTUCKY...

CITY           SKY/WX    TMP DP  RH WIND       PRES   REMARKS
JACKSON        CLOUDY    68  67  96 CALM      29.90R
LONDON         LGT RAIN  71  65  81 S5        29.90R
SOMERSET*      CLOUDY    68  68 100 CALM      29.89S
MONTICELLO*    CLOUDY    71  71 100 CALM      29.90R
MIDDLESBORO*   CLOUDY    68  68 100 CALM      29.91F FOG
HARLAN APT*      N/A     68  68 100 CALM      29.93R
HAZARD APT*    CLOUDY    68  68 100 CALM      29.90R FOG
BLACK MTN*       N/A     63  63 100 S6          N/A
PIKEVILLE APT* CLOUDY    66  66 100 CALM      29.91S
BIG SANDY*     RAIN      68  68 100 CALM      29.91R
MOREHEAD APT*  LGT RAIN  68  66  94 N6        29.91R
$$

KYZ035-036-041-042-044-050-067-078-099-031200
...CENTRAL KENTUCKY...

CITY           SKY/WX    TMP DP  RH WIND       PRES   REMARKS
MT STERLING*   CLOUDY    68  68 100 NE3       29.90R
FLEMING/MASON* LGT RAIN  64  64 100 E6        29.90
DANVILLE*      CLOUDY    68  68 100 CALM      29.89R FOG
RICHMOND*      CLOUDY    70  68  94 CALM      29.88R
LEXINGTON      CLOUDY    70  68  93 E5        29.88R
FRANKFORT      CLOUDY    70  67  90 E7        29.86R
$$

KYZ091>093-OHZ055-061-077-WVZ005-015-034-035-042-031200
...SOUTHERN OHIO/WEST VIRGINIA...

CITY           SKY/WX    TMP DP  RH WIND       PRES   REMARKS
COVINGTON      LGT RAIN  67  64  90 NE6       29.90R FOG
COLUMBUS       CLOUDY    62  54  74 E6        29.94R
DAYTON         CLOUDY    63  56  78 E5        29.94R
WILMINGTON     CLOUDY    62  57  83 NE8       29.92R
HUNTINGTON     CLOUDY    66  64  93 E3        29.89R FOG
CHARLESTON     CLOUDY    66  63  90 CALM      29.91R FOG
PINEVILLE*     CLOUDY    66  66 100 MISG      29.99R FOG
BECKLEY        CLOUDY    64  61  90 SE10      29.98R FOG
BLUEFIELD      LGT RAIN  66  62  87 E5        30.00R FOG
$$

VAZ002-007-008-TNZ017-027-036-066-071-031200
...SOUTHWEST VIRGINIA/EAST TENNESSEE...

CITY           SKY/WX    TMP DP  RH WIND       PRES   REMARKS
WISE*          CLOUDY    66  66 100 SW6       29.98S FOG
JONESVILLE*      N/A    N/A N/A N/A MISG        N/A
ABINGDON*      CLOUDY    68  68 100 CALM      29.97S
BRISTOL        CLOUDY    68  67  96 CALM      29.95R
OAK RIDGE      CLOUDY    70  68  93 SW3       29.92R
CROSSVILLE     CLOUDY    71  68  90 W5        29.94S
NASHVILLE      CLOUDY    72  72 100 SW3       29.88R
$$

...KEY TO REMARKS...
VSB - VISIBILITY IN MILES
WCI - WIND CHILL INDEX
HX  - HEAT INDEX

$$


USA.gov is the U.S. government's official web portal to all federal, state and local government web resources and services.